Location: Newark
(41.8083°N, 72.2500°W)
Time: 10:42:31
(UTC+00:00)

Vanguard 1 Rocket - Pass Details

Date: 13 December 2021
Orbit: 651 x 4224 km, 34.3° (Epoch: 15 January)

Event Time Altitude Azimuth Distance (km) Brightness Sun altitude
Exits shadow 09:46:20 31° 250° (WSW) 3,411 9.8 -25.5°
Maximum altitude 09:52:59 48° 199° (SSW) 3,384 10.1 -24.3°
Drops below altitude 10° 10:13:24 10° 135° (SE) 7,112 12.7 -20.6°
Sets 10:19:55 0° 130° (SE) 8,373 13.4 -19.4°
